User: anonymous   Login
Location: Breitenfeld
(46.8500°N, 15.6333°E)
Time: 13:34:48
(UTC+00:00)
Language:

Hubble Space Telescope - Orbit

View from above orbital plane
View from above orbital plane
View from above satellite
View from above satellite

Ground track
Ground track

The orbit data is extracted from the following two-line orbital elements,

1 20580U 90037B   20218.69167111 +.00000409 +00000-0 +13865-4 0  9999
2 20580 028.4705 353.9946 0002499 261.8075 218.7967 15.09413576463414
Epoch (UTC): 05 August 2020 16:36:00
Eccentricity: 0.0002499
inclination: 28.4705°
perigee height: 536 km
apogee height: 540 km
right ascension of ascending node: 353.9946°
argument of perigee: 261.8075°
revolutions per day: 15.09413576
mean anomaly at epoch: 218.7967°
orbit number at epoch: 46341

The dashed part of the orbit path shows where the satellite is in the earth's shadow,  

DLR